Skip Navigation Links
NOAA logo - Click to go to the NOAA homepage
NOAA's National Weather Service
Alaska Aviation Weather Unit
  NWS logo - Click to go to the NWS homepage
Left Navbar Graphic     21 AKDT = 05 GMT

   
NOAA is celebrating 200 years of science, service, and stewardship. Visit the NOAA 200th celebration Web site to learn more.
USA.gov is the U.S. Government's official Web portal to all Federal, state and local government Web resources and services.
Facebook
NWS on Facebook

Important Change Regarding the AAWU Web Presence

 

Over the last several months, the AAWU has been working to navigate its webpages to a nationally supported server. Security, as well as other needs, have necessitated the change.  In the process, we have made an effort to enhance the functionality of our website, as well as some of our products. As of June 27, 2017, aawu.arh.noaa.gov will be discontinued. The new AAWU web address is weather.gov/aawu. It is now live and will run in-parallel with the old site until it is discontinued. Please send any feedback or questions regarding the new webpages to nws.ar.aawu.webauthors@noaa.gov.  Thank you for your patience during this time of transition.
AAWU Home :: Display TAF Add Bookmark
METAR PAMR 242353Z VRB03KT 10SM CLR 18/09 A3007 RMK AO2 SLP184 T01780094
     10183 20117 58017=

METAR PAMR 250053Z AUTO 10SM CLR 18/11 A3006 RMK AO2 SLP180
 T01830106 TSNO=

METAR PAMR 250153Z 31006KT 10SM FEW050 SCT065 19/11 A3004 RMK AO2 SLP175
     T01890106=

METAR PAMR 250253Z 28006KT 10SM CLR 19/10 A3003 RMK AO2 SLP171 T01890100
     58013=

METAR PAMR 250353Z 31007KT 10SM CLR 18/11 A3003 RMK AO2 SLP169
 T01780111=

METAR PAMR 250453Z 30006KT 10SM CLR 17/11 A3002 RMK AO2 SLP166
     T01720106=


NOAA's National Weather Service
Alaska Aviation Weather Unit
6930 Sand Lake Road
Anchorage, AK 99502-1845
Disclaimer
Credits
Glossary
Privacy Policy
About Us
Career Opportunities
Contact AAWU Internet Services Site last modified: April, 17th 2012